| time (UTC) | temp F | wind direction | speed MPH | gust MPH | rain 1hr in | rain 24hr in | rain mn in | humidity % | barometer mb |
| 20260503050027 | 41 | 360 | 7.0 | 13.0 | 0.00 | 0.00 | 0.00 | 61 | 1013.0 |
| 20260503044505 | 41 | 360 | 8.0 | 13.0 | 0.00 | 0.00 | 0.00 | 61 | 1013.2 |
| 20260503043051 | 41 | 360 | 8.0 | 13.0 | 0.00 | 0.00 | 0.00 | 62 | 1013.4 |
| 20260503041519 | 40 | 360 | 8.0 | 12.0 | 0.00 | 0.00 | 0.00 | 64 | 1013.5 |
| 20260503040038 | 40 | 360 | 9.0 | 13.0 | 0.00 | 0.00 | 0.00 | 65 | 1013.7 |
| 20260503034511 | 40 | 360 | 7.0 | 12.0 | 0.00 | 0.00 | 0.00 | 64 | 1013.8 |
| 20260503033048 | 40 | 360 | 7.0 | 11.0 | 0.00 | 0.00 | 0.00 | 64 | 1014.0 |
| 20260503031524 | 41 | 360 | 6.0 | 13.0 | 0.00 | 0.00 | 0.00 | 63 | 1014.3 |
| 20260503030049 | 41 | 360 | 8.0 | 11.0 | 0.00 | 0.00 | 0.00 | 60 | 1014.5 |
| 20260503024526 | 41 | 360 | 7.0 | 10.0 | 0.00 | 0.00 | 0.00 | 60 | 1014.5 |
| 20260503023006 | 41 | 360 | 6.0 | 11.0 | 0.00 | 0.00 | 0.00 | 60 | 1014.7 |
| 20260503021543 | 41 | 360 | 5.0 | 9.0 | 0.00 | 0.00 | 0.00 | 60 | 1014.8 |
| 20260503020004 | 41 | 360 | 6.0 | 13.0 | 0.00 | 0.00 | 0.00 | 60 | 1014.9 |
| 20260503014555 | 41 | 360 | 7.0 | 10.0 | 0.00 | 0.00 | 0.00 | 60 | 1014.9 |
| 20260503013033 | 41 | 360 | 6.0 | 12.0 | 0.00 | 0.00 | 0.00 | 62 | 1014.8 |
| 20260503011558 | 42 | 360 | 8.0 | 14.0 | 0.00 | 0.00 | 0.00 | 65 | 1014.9 |
| 20260503010018 | 42 | 360 | 10.0 | 15.0 | 0.00 | 0.00 | 0.00 | 65 | 1014.9 |
| 20260503004558 | 41 | 360 | 9.0 | 15.0 | 0.00 | 0.00 | 0.00 | 67 | 1015.0 |
| 20260503003043 | 42 | 360 | 7.0 | 15.0 | 0.00 | 0.00 | 0.00 | 66 | 1015.1 |
| 20260503001512 | 42 | 360 | 6.0 | 11.0 | 0.00 | 0.00 | 0.00 | 68 | 1015.2 |
| 20260503000034 | 42 | 360 | 5.0 | 13.0 | 0.00 | 0.00 | 0.00 | 64 | 1015.3 |
| 20260502234506 | 43 | 360 | 7.0 | 12.0 | 0.00 | 0.00 | 0.00 | 62 | 1015.5 |
| 20260502233044 | 43 | 360 | 6.0 | 13.0 | 0.00 | 0.00 | 0.00 | 62 | 1015.5 |
| 20260502231521 | 44 | 360 | 6.0 | 12.0 | 0.00 | 0.00 | 0.00 | 65 | 1015.7 |
| 20260502230045 | 44 | 360 | 7.0 | 11.0 | 0.00 | 0.00 | 0.00 | 63 | 1015.8 |
| 20260502224521 | 46 | 360 | 6.0 | 8.0 | 0.00 | 0.00 | 0.00 | 64 | 1015.9 |
| 20260502223100 | 46 | 360 | 4.0 | 7.0 | 0.00 | 0.00 | 0.00 | 59 | 1015.9 |
| 20260502223002 | 46 | 360 | 4.0 | 8.0 | 0.00 | 0.00 | 0.00 | 58 | 1015.9 |
| 20260502221536 | 47 | 360 | 4.0 | 8.0 | 0.00 | 0.00 | 0.00 | 60 | 1016.2 |
| 20260502220054 | 46 | 360 | 6.0 | 11.0 | 0.00 | 0.00 | 0.00 | 49 | 1016.3 |
| 20260502214547 | 47 | 360 | 6.0 | 10.0 | 0.00 | 0.00 | 0.00 | 45 | 1016.5 |
| 20260502213013 | 48 | 360 | 4.0 | 7.0 | 0.00 | 0.00 | 0.00 | 44 | 1016.5 |
| 20260502211553 | 48 | 360 | 4.0 | 9.0 | 0.00 | 0.00 | 0.00 | 40 | 1016.6 |
| 20260502210013 | 49 | 360 | 4.0 | 7.0 | 0.00 | 0.00 | 0.00 | 42 | 1016.7 |
| 20260502204555 | 49 | 360 | 2.0 | 7.0 | 0.00 | 0.00 | 0.00 | 44 | 1016.9 |
| 20260502203029 | 49 | 360 | 4.0 | 8.0 | 0.00 | 0.00 | 0.00 | 38 | 1017.1 |
| 20260502201510 | 49 | 360 | 4.0 | 8.0 | 0.00 | 0.00 | 0.00 | 36 | 1017.3 |
| 20260502200029 | 49 | 360 | 3.0 | 8.0 | 0.00 | 0.00 | 0.00 | 34 | 1017.4 |
| 20260502194514 | 49 | 360 | 5.0 | 8.0 | 0.00 | 0.00 | 0.00 | 37 | 1017.7 |
| 20260502193046 | 48 | 360 | 4.0 | 8.0 | 0.00 | 0.00 | 0.00 | 44 | 1017.9 |
| 20260502191521 | 48 | 360 | 3.0 | 9.0 | 0.00 | 0.00 | 0.00 | 38 | 1018.1 |
| 20260502190048 | 47 | 360 | 5.0 | 11.0 | 0.00 | 0.00 | 0.00 | 42 | 1018.3 |
| 20260502184521 | 47 | 360 | 6.0 | 8.0 | 0.00 | 0.00 | 0.00 | 45 | 1018.4 |
| 20260502183059 | 46 | 360 | 4.0 | 9.0 | 0.00 | 0.00 | 0.00 | 44 | 1018.5 |
| 20260502183002 | 46 | 360 | 4.0 | 9.0 | 0.00 | 0.00 | 0.00 | 44 | 1018.5 |
| 20260502181542 | 46 | 360 | 5.0 | 9.0 | 0.00 | 0.00 | 0.00 | 54 | 1018.7 |
| 20260502163045 | 45 | 360 | 6.0 | 10.0 | 0.00 | 0.00 | 0.00 | 63 | 1019.0 |
| 20260502161508 | 44 | 360 | 5.0 | 10.0 | 0.00 | 0.00 | 0.00 | 69 | 1019.1 |
| 20260502151531 | 45 | 360 | 5.0 | 8.0 | 0.00 | 0.00 | 0.00 | 62 | 1019.2 |
| 20260502123033 | 39 | 360 | 0.0 | 3.0 | 0.00 | 0.00 | 0.00 | 82 | 1019.5 |
| 20260502121601 | 38 | 360 | 0.0 | 2.0 | 0.00 | 0.00 | 0.00 | 88 | 1019.6 |
| 20260502121502 | 38 | 360 | 0.0 | 2.0 | 0.00 | 0.00 | 0.00 | 88 | 1019.6 |
| 20260502114601 | 34 | 360 | 0.0 | 0.0 | 0.00 | 0.00 | 0.00 | 94 | 1019.5 |
| 20260502113035 | 32 | 360 | 0.0 | 0.0 | 0.00 | 0.00 | 0.00 | 94 | 1019.4 |
| 20260502111514 | 32 | 360 | 0.0 | 3.0 | 0.00 | 0.00 | 0.00 | 94 | 1019.3 |
| 20260502110033 | 30 | 360 | 0.0 | 0.0 | 0.00 | 0.00 | 0.00 | 94 | 1019.2 |
| 20260502104510 | 30 | 360 | 0.0 | 2.0 | 0.00 | 0.00 | 0.00 | 93 | 1019.2 |
| 20260502103102 | 30 | 360 | 0.0 | 0.0 | 0.00 | 0.00 | 0.00 | 93 | 1019.1 |
| 20260502101526 | 30 | 360 | 0.0 | 2.0 | 0.00 | 0.00 | 0.00 | 93 | 1019.0 |
| 20260502100108 | 31 | 360 | 0.0 | 1.0 | 0.00 | 0.00 | 0.00 | 93 | 1019.1 |
| 20260502090132 | 31 | 360 | 0.0 | 2.0 | 0.00 | 0.00 | 0.00 | 93 | 1019.0 |
| 20260502071505 | 30 | 360 | 0.0 | 2.0 | 0.00 | 0.00 | 0.00 | 91 | 1018.7 |
| 20260502070028 | 30 | 360 | 0.0 | 2.0 | 0.00 | 0.00 | 0.00 | 90 | 1018.7 |
| 20260502064503 | 31 | 360 | 0.0 | 2.0 | 0.00 | 0.00 | 0.00 | 90 | 1018.8 |
| 20260502063046 | 31 | 360 | 0.0 | 0.0 | 0.00 | 0.00 | 0.00 | 87 | 1018.9 |
| 20260502061532 | 32 | 360 | 0.0 | 2.0 | 0.00 | 0.00 | 0.00 | 88 | 1018.9 |
| 20260502060045 | 32 | 360 | 0.0 | 2.0 | 0.00 | 0.00 | 0.00 | 88 | 1018.8 |
| 20260502054519 | 32 | 360 | 0.0 | 3.0 | 0.00 | 0.00 | 0.00 | 87 | 1018.8 |
| 20260502053111 | 33 | 360 | 1.0 | 3.0 | 0.00 | 0.00 | 0.00 | 86 | 1018.8 |
| 20260502053001 | 33 | 360 | 1.0 | 3.0 | 0.00 | 0.00 | 0.00 | 86 | 1018.9 |
| 20260502051535 | 33 | 360 | 1.0 | 2.0 | 0.00 | 0.00 | 0.00 | 85 | 1018.9 |